[[{"header":{"parameterUnit":"m.s-1","parameterCategory":1,"la1":30.2991,"la2":30.254,"lo1":-89.0895,"lo2":-89.0444,"dy":0.0017,"dx":0.0017,"nx":28,"ny":28,"refTime":"2024-08-13T21:00:00:Z","depth":0,"parameterNumber":2,"parameterNumberName":"U-component_of_WINDS"},"data":[0,0,0,0,0,0,0,0,0,0,0,0,0,0,0,0,0,0,0,0,0,0,0,0,0,0,0,0,0,0,0,0,0,0,0,0,0,0,0,0,0,0,0,0,0,0,0,0,0,0,0,0,0,0,0,0,0,0,0.1997,0.1998,0,0.2079,0.208,0.2081,0.2103,0.2102,0.2102,0.2101,0.2192,0.2194,0.2197,0,0,0,0,0,0,0,0,0,0,0,0,0,0.1865,0.1867,0.1997,0.1998,0.1999,0.2078,0.208,0.2081,0.2103,0.2102,0.2102,0.2101,0.2191,0.2194,0.2197,0,0,0,0,0,0,0,0,0,0,0,0,0,0.1932,0.1868,0.1997,0.2019,0.2022,0.2078,0.208,0.2081,0.2103,0.2102,0.2102,0.2101,0.2189,0.2194,0.2198,0.2239,0,0,0.2211,0.2213,0,0,0,0,0,0,0,0,0.1928,0.1937,0.2015,0.2018,0.2021,0.208,0.2066,0.2134,0.2103,0.2073,0.2101,0.2101,0.2155,0.2162,0.218,0.2243,0.2247,0.2211,0.2214,0.2216,0.2217,0,0,0,0,0,0,0,0.1923,0.1933,0.2029,0.2016,0.202,0.2027,0.2036,0.2079,0.2117,0.2075,0.2077,0.2086,0.2157,0.2175,0.2182,0.2248,0.2211,0.2215,0.2218,0.2219,0.2349,0.235,0,0,0,0,0,0,0.1914,0.1929,0.2027,0.2032,0.1972,0.203,0.204,0.2062,0.2117,0.2124,0.2087,0.2087,0.2168,0.2177,0.2185,0.2236,0.2216,0.222,0.2222,0.2348,0.2349,0.235,0,0,0,0,0,0,0.1911,0.1923,0.2024,0.1981,0.1994,0.2033,0.2058,0.2064,0.2082,0.2125,0.2133,0.2098,0.2168,0.2179,0.2225,0.224,0.2222,0.2226,0.2347,0.2348,0.235,0.2339,0,0,0,0,0,0,0.1907,0.1921,0.1937,0.1981,0.1997,0.206,0.2059,0.2066,0.2089,0.209,0.2138,0.2146,0.2168,0.2218,0.2229,0.2245,0.2229,0.2346,0.2348,0.2349,0.2338,0.234,0.2341,0,0,0,0,0,0.1902,0.1932,0.1937,0.1949,0.2016,0.2061,0.207,0.2094,0.209,0.2106,0.2133,0.2144,0.2236,0.2223,0.2235,0.2253,0.2345,0.2347,0.2349,0.2338,0.234,0.2341,0,0,0,0,0,0,0.1891,0.1938,0.1945,0.1989,0.2021,0.2065,0.2086,0.2096,0.2131,0.2131,0.2161,0.2171,0.2215,0.2239,0.2223,0.2295,0.2291,0.2295,0.2278,0.228,0.2282,0.2276,0.2232,0,0,0,0,0,0.1893,0.1924,0.1965,0.2,0.2015,0.2048,0.2068,0.2084,0.2118,0.2133,0.2164,0.2198,0.2235,0.2259,0.2295,0.2341,0.2352,0.236,0.2361,0.2362,0.2366,0.2392,0.2395,0.2356,0.2356,0.2356,0,0,0.1899,0.1929,0.1947,0.1998,0.2025,0.2057,0.2059,0.2094,0.2119,0.2139,0.2183,0.2207,0.2248,0.2293,0.2315,0.2314,0.2379,0.2365,0.2365,0.2369,0.2394,0.2398,0.2401,0.2358,0.2358,0.2357,0,0,0.1926,0.1951,0.1983,0.2008,0.2047,0.2068,0.2075,0.2118,0.2133,0.2178,0.2193,0.2223,0.2286,0.2314,0.2337,0.2372,0.2383,0.2383,0.2391,0.2416,0.2419,0.2422,0.2434,0.2438,0.2386,0.2386,0.2386,0,0.1929,0.1977,0.1999,0.2032,0.2054,0.2071,0.2104,0.2128,0.2177,0.2193,0.2191,0.2268,0.2297,0.2349,0.2357,0.2375,0.2385,0.2378,0.2416,0.2419,0.2422,0.2435,0.2439,0.2386,0.2386,0.2386,0.2386,0,0.1979,0.2012,0.2033,0.2077,0.2102,0.2135,0.2163,0.2185,0.2198,0.2219,0.2264,0.2298,0.2341,0.2355,0.2369,0.2409,0.2407,0.241,0.2407,0.2425,0.2437,0.2442,0.2386,0.2386,0.2386,0.2386,0,0,0.2003,0.2056,0.2064,0.2084,0.2126,0.2153,0.2187,0.2226,0.2245,0.2278,0.2308,0.2359,0.2361,0.2387,0.2404,0.2425,0.245,0.2425,0.2427,0.2429,0.2496,0.2493,0.2498,0.2457,0.2458,0.2458,0.2492,0,0.2036,0.2094,0.2114,0.2163,0.2194,0.2209,0.2238,0.2268,0.2289,0.2319,0.2343,0.2378,0.2379,0.2394,0.2415,0.2442,0.2464,0.244,0.2486,0.2487,0.2475,0.2505,0.2503,0.2533,0.2497,0.2498,0.2499,0,0.2082,0.2113,0.2165,0.2201,0.2215,0.2241,0.2278,0.2306,0.2341,0.2354,0.2381,0.2395,0.2432,0.2425,0.2476,0.246,0.2479,0.2495,0.2497,0.2503,0.2495,0.2512,0.2544,0.2548,0.2506,0.2506,0.2505,0,0.2095,0.2149,0.2187,0.2203,0.2247,0.2265,0.2285,0.2318,0.234,0.2372,0.2387,0.2424,0.2445,0.2474,0.2499,0.2491,0.2548,0.2543,0.2561,0.256,0.2573,0.2572,0.2609,0.2585,0.2585,0.2584,0.2584,0,0.213,0.2161,0.2193,0.2216,0.2251,0.2273,0.2308,0.2329,0.2358,0.2386,0.2402,0.2428,0.2459,0.2489,0.2509,0.2548,0.2558,0.257,0.2575,0.2569,0.2567,0.2583,0.2582,0.2586,0.2585,0.2585,0.2585,0,0.215,0.2173,0.2215,0.2252,0.2262,0.2286,0.2319,0.2342,0.2362,0.2398,0.2408,0.244,0.2476,0.2503,0.2552,0.2565,0.2607,0.2612,0.2594,0.2597,0.2613,0.2611,0.2662,0.267,0.264,0.264,0.264,0,0.2171,0.2195,0.2234,0.2253,0.2271,0.2302,0.2324,0.2346,0.2368,0.2407,0.2426,0.2463,0.2495,0.2553,0.2582,0.2618,0.2624,0.2639,0.263,0.2623,0.2625,0.2623,0.2626,0.2641,0.2641,0.2642,0.2642,0,0.2207,0.2216,0.2245,0.2278,0.2302,0.233,0.2358,0.2373,0.24,0.2424,0.2461,0.2484,0.2532,0.2569,0.2608,0.263,0.2641,0.2644,0.265,0.2645,0.2634,0.264,0.2598,0.2643,0.2643,0.2643,0.2643,0.2643,0.2228,0.225,0.2279,0.2311,0.2334,0.2359,0.2382,0.2404,0.2434,0.2473,0.2485,0.2522,0.2555,0.2608,0.263,0.266,0.266,0.2669,0.2671,0.2673,0.2673,0.2627,0.2668,0.2668,0.2668,0.2668,0.2668,0,0.2264,0.2283,0.2312,0.2349,0.2374,0.2379,0.241,0.2431,0.2463,0.2491,0.2521,0.2562,0.2597,0.2627,0.2664,0.2683,0.2689,0.2692,0.2691,0.2696,0.2671,0.2662,0.2686,0.2686,0.2686,0.2686,0.2686,0.2686,0.2286,0.2322,0.2334,0.2382,0.2401,0.2436,0.2453,0.2477,0.2499,0.2544,0.2572,0.259,0.262,0.2658,0.2691,0.2699,0.2712,0.2714,0.2723,0.27,0.2698,0.2696,0.2687,0.2716,0.2716,0.2745,0.2746,0.2746]},{"header":{"parameterUnit":"m.s-1","parameterCategory":1,"la1":30.2991,"la2":30.254,"lo1":-89.0895,"lo2":-89.0444,"dy":0.0017,"dx":0.0017,"nx":28,"ny":28,"refTime":"2024-08-13T21:00:00:Z","depth":0,"parameterNumber":3,"parameterNumberName":"V-component_of_WINDS"},"data":[0,0,0,0,0,0,0,0,0,0,0,0,0,0,0,0,0,0,0,0,0,0,0,0,0,0,0,0,0,0,0,0,0,0,0,0,0,0,0,0,0,0,0,0,0,0,0,0,0,0,0,0,0,0,0,0,0,0,2.8815,2.8815,0,2.8824,2.8824,2.8824,2.8823,2.8823,2.8823,2.8823,2.8829,2.8829,2.8829,0,0,0,0,0,0,0,0,0,0,0,0,0,2.8789,2.8789,2.8815,2.8815,2.8815,2.8824,2.8824,2.8824,2.8823,2.8823,2.8823,2.8823,2.8829,2.8829,2.8829,0,0,0,0,0,0,0,0,0,0,0,0,0,2.8799,2.8789,2.8815,2.8815,2.8816,2.8824,2.8824,2.8824,2.8823,2.8823,2.8823,2.8823,2.8829,2.8829,2.883,2.8836,0,0,2.8831,2.8831,0,0,0,0,0,0,0,0,2.8799,2.88,2.8815,2.8815,2.8816,2.8822,2.8817,2.8828,2.8823,2.882,2.8823,2.8823,2.8827,2.8827,2.8829,2.8837,2.8837,2.8831,2.8831,2.8831,2.8831,0,0,0,0,0,0,0,2.8798,2.88,2.8818,2.8815,2.8816,2.8813,2.8815,2.8819,2.8824,2.8821,2.8821,2.8822,2.8827,2.8829,2.883,2.8837,2.8831,2.8831,2.8832,2.8832,2.8846,2.8846,0,0,0,0,0,0,2.8798,2.8799,2.8818,2.8819,2.8807,2.8814,2.8815,2.882,2.8824,2.8825,2.8822,2.8822,2.8828,2.8829,2.883,2.8836,2.8831,2.8832,2.8832,2.8846,2.8846,2.8846,0,0,0,0,0,0,2.8797,2.8799,2.8818,2.8809,2.8811,2.8815,2.882,2.8821,2.8823,2.8826,2.8826,2.8824,2.8828,2.8829,2.8834,2.8836,2.8832,2.8832,2.8846,2.8846,2.8846,2.8849,0,0,0,0,0,0,2.8796,2.8799,2.8804,2.8809,2.8811,2.8824,2.8821,2.8821,2.8824,2.8824,2.8827,2.8828,2.8828,2.8833,2.8835,2.8836,2.8833,2.8846,2.8846,2.8846,2.8849,2.8849,2.885,0,0,0,0,0,2.8796,2.8804,2.8804,2.8806,2.8817,2.8824,2.8825,2.8827,2.8825,2.8828,2.8828,2.8828,2.8835,2.8834,2.8835,2.8837,2.8845,2.8846,2.8846,2.8849,2.8849,2.885,0,0,0,0,0,0,2.8799,2.8805,2.8805,2.8816,2.8819,2.8824,2.8828,2.8828,2.8831,2.8831,2.8831,2.8831,2.8836,2.8837,2.8835,2.8842,2.884,2.884,2.8841,2.8842,2.8842,2.8842,2.8833,0,0,0,0,0,2.8801,2.8807,2.8812,2.8821,2.8823,2.8825,2.8828,2.8829,2.8832,2.8833,2.8834,2.8836,2.8838,2.884,2.8843,2.8849,2.8848,2.885,2.8851,2.8851,2.8851,2.8851,2.8851,2.8847,2.8847,2.8847,0,0,2.8805,2.8809,2.8813,2.8822,2.8825,2.8829,2.8826,2.8832,2.8835,2.8833,2.8838,2.8839,2.884,2.8845,2.8847,2.8846,2.8852,2.8851,2.8852,2.8852,2.8851,2.8851,2.8852,2.8847,2.8847,2.8847,0,0,2.8815,2.882,2.8827,2.8829,2.8833,2.8834,2.8835,2.8839,2.884,2.8844,2.8843,2.8844,2.885,2.885,2.8851,2.8856,2.8854,2.8857,2.8859,2.8859,2.8859,2.8859,2.8859,2.8859,2.8857,2.8857,2.8857,0,2.8819,2.8828,2.883,2.8835,2.8837,2.8836,2.8841,2.8843,2.8847,2.8847,2.8846,2.885,2.8852,2.8855,2.8856,2.8857,2.8856,2.8857,2.8859,2.8859,2.886,2.8859,2.8859,2.8857,2.8857,2.8857,2.8857,0,2.8832,2.8837,2.8841,2.8846,2.8848,2.8853,2.8853,2.8855,2.8854,2.8855,2.8857,2.8858,2.8859,2.886,2.886,2.8862,2.8861,2.8859,2.8857,2.886,2.886,2.886,2.8857,2.8857,2.8857,2.8857,0,0,2.8846,2.8849,2.885,2.8851,2.8854,2.8857,2.886,2.8862,2.8862,2.8864,2.8865,2.8867,2.8865,2.8866,2.8865,2.8865,2.8866,2.8863,2.8863,2.8862,2.8865,2.8865,2.8865,2.8864,2.8864,2.8864,2.8864,0,2.8854,2.8862,2.8862,2.8867,2.887,2.8868,2.887,2.887,2.887,2.887,2.8869,2.887,2.8868,2.8868,2.8868,2.8866,2.8866,2.8866,2.8863,2.8863,2.8862,2.8866,2.8867,2.8867,2.8864,2.8864,2.8864,0,2.8866,2.8868,2.8874,2.8874,2.8875,2.8877,2.8877,2.8879,2.8877,2.8877,2.8876,2.8874,2.8874,2.8872,2.887,2.887,2.8868,2.8866,2.8866,2.8866,2.8864,2.8864,2.8867,2.8867,2.8864,2.8864,2.8864,0,2.8873,2.8877,2.8881,2.8881,2.8881,2.8882,2.8882,2.8881,2.8881,2.888,2.8879,2.8878,2.8877,2.8875,2.8872,2.8871,2.8869,2.8868,2.8867,2.8867,2.8867,2.8867,2.8869,2.8867,2.8867,2.8867,2.8867,0,2.8882,2.8886,2.8884,2.8886,2.8888,2.8886,2.8888,2.8887,2.8885,2.8885,2.8882,2.8882,2.8878,2.8876,2.8873,2.887,2.887,2.8868,2.8867,2.8868,2.8868,2.8866,2.8866,2.8867,2.8867,2.8867,2.8867,0,2.8891,2.889,2.8893,2.8892,2.8891,2.8893,2.8891,2.8891,2.8889,2.8889,2.8888,2.8885,2.8882,2.8878,2.8875,2.8872,2.887,2.8869,2.887,2.887,2.8868,2.8868,2.8869,2.8868,2.8868,2.8868,2.8868,0,2.8896,2.8899,2.8897,2.8897,2.8897,2.8897,2.8897,2.8894,2.8893,2.889,2.889,2.8887,2.8885,2.888,2.8876,2.8872,2.887,2.8871,2.887,2.887,2.8868,2.8868,2.8867,2.8871,2.8871,2.8871,2.8871,0,2.8905,2.8904,2.8904,2.8903,2.8903,2.8902,2.8901,2.89,2.8897,2.8895,2.8893,2.8891,2.8886,2.8883,2.8878,2.8875,2.8871,2.8871,2.8871,2.8871,2.8871,2.8869,2.887,2.8871,2.8871,2.8871,2.8871,2.8871,2.8911,2.8912,2.891,2.891,2.8908,2.8906,2.8906,2.8903,2.8902,2.8898,2.8896,2.8893,2.8888,2.8881,2.8878,2.8874,2.8873,2.8872,2.8872,2.8872,2.8871,2.8872,2.8873,2.8873,2.8873,2.8873,2.8873,0,2.8919,2.8917,2.8916,2.8914,2.8913,2.891,2.8908,2.8906,2.8904,2.89,2.8898,2.8893,2.8888,2.8883,2.8878,2.8875,2.8873,2.8874,2.8873,2.8872,2.8873,2.8874,2.8875,2.8875,2.8875,2.8875,2.8875,2.8875,2.8922,2.8923,2.892,2.8919,2.8916,2.8914,2.8912,2.8909,2.8906,2.8901,2.8898,2.8895,2.8889,2.8883,2.8878,2.8876,2.8873,2.8874,2.8872,2.8873,2.8872,2.8872,2.8873,2.8874,2.8874,2.8871,2.8871,2.8871]}]]